Tacoma, WA

8:04 AM PST on December 06, 2016 (GMT -0800)
McChord Air Force Base

Weather History for KTCM - June, 2012

Change the Weather History Date:

Saturday, June 30, 2012

  Actual Average Record
Temperature  
Mean Temperature 62 °F -  
Max Temperature 68 °F 69 °F 92 °F (1995)
Min Temperature 58 °F 49 °F 44 °F (1970)
Degree Days  
Heating Degree Days 3    
Growing Degree Days 12 (Base 50)    
Moisture  
Dew Point 60 °F    
Average Humidity 94    
Maximum Humidity 100    
Minimum Humidity 76    
Precipitation  
Precipitation 0.06 in - - ()
Sea Level Pressure  
Sea Level Pressure 29.98 in    
Wind  
Wind Speed 3 mph (WNW)    
Max Wind Speed 9 mph    
Max Gust Speed -    
Visibility 8 miles    
Events Rain    
Averages and records for this station are not official NWS values.
T = Trace of Precipitation, MM = Missing Value Source: NWS Daily Summary

Daily Weather History Graph

Daily Weather History Graph

Search for Another Location

Airport or City:

Trip Planner

Search our weather history database for the weather conditions in past years. The results will help you decide how hot, cold, wet, or windy it might be!

Date:

Astronomy

Jun. 30, 2012 Rise Set
Actual Time 5:18 AM PDT 9:09 PM PDT
Civil Twilight 4:38 AM PDT 9:48 PM PDT
Nautical Twilight 3:43 AM PDT 10:43 PM PDT
Astronomical Twilight 2:23 AM PDT 12:03 AM PDT
Moon 6:08 PM PDT (6/30) 2:22 AM PDT (6/30)
Length of Visible Light 17h 10m
Length of Day
15h 51m
Waxing Gibbous, 88% of the Moon is Illuminated
Jun 30
Waxing Gibbous
Jul 3
Full
Jul 10
Last Quarter
Jul 18
New
Jul 26
First Quarter

Hourly Weather History & Observations

Time (PDT) Temp. Dew Point Humidity Pressure Visibility Wind Dir Wind Speed Gust Speed Precip Events Conditions
12:13 AM 60.8 °F 59.0 °F 94% 30.04 in 6.0 mi Calm Calm - N/A   Overcast
12:14 AM 60.8 °F 59.0 °F 94% 30.04 in 5.0 mi Calm Calm - N/A   Overcast
12:17 AM 60.8 °F 59.0 °F 94% 30.04 in 4.0 mi Calm Calm - N/A   Light Drizzle
12:22 AM 60.8 °F 59.0 °F 94% 30.04 in 3.0 mi NNE 2.3 mph - N/A   Drizzle
12:27 AM 60.8 °F 59.0 °F 94% 30.04 in 2.5 mi NNE 2.3 mph - N/A   Light Drizzle
12:32 AM 60.8 °F 59.0 °F 94% 30.03 in 3.0 mi NNE 5.8 mph - N/A Rain Light Rain
12:51 AM 59.0 °F 59.0 °F 100% 30.03 in 10.0 mi West 3.5 mph - N/A   Overcast
12:56 AM 59.0 °F 59.0 °F 100% 30.03 in 10.0 mi West 2.3 mph - N/A   Overcast
12:57 AM 59.0 °F 59.0 °F 100% 30.03 in 10.0 mi West 2.3 mph - N/A   Light Drizzle
12:58 AM 59.5 °F 59.2 °F 99% 30.04 in 10.0 mi West 2.3 mph - 0.02 in   Light Drizzle
1:14 AM 59.0 °F 59.0 °F 100% 30.03 in 7.0 mi West 2.3 mph - N/A   Overcast
1:16 AM 59.0 °F 59.0 °F 100% 30.03 in 7.0 mi WNW 1.2 mph - N/A   Light Drizzle
1:58 AM 59.4 °F 59.0 °F 99% 30.03 in 6.0 mi ENE 1.2 mph - 0.01 in Rain Light Rain
2:08 AM 59.0 °F 59.0 °F 100% 30.02 in 4.0 mi Calm Calm - N/A   Light Drizzle
2:13 AM 59.0 °F 59.0 °F 100% 30.02 in 5.0 mi Calm Calm - N/A   Light Drizzle
2:17 AM 59.0 °F 59.0 °F 100% 30.01 in 4.0 mi ENE 2.3 mph - N/A   Light Drizzle
2:27 AM 59.0 °F 59.0 °F 100% 30.01 in 5.0 mi NE 2.3 mph - N/A Rain Light Rain
2:37 AM 59.0 °F 59.0 °F 100% 30.01 in 9.0 mi North 2.3 mph - N/A   Light Drizzle
2:55 AM 59.0 °F 59.0 °F 100% 30.01 in 5.0 mi Calm Calm - N/A   Overcast
2:58 AM 59.0 °F 59.0 °F 100% 30.02 in 4.0 mi Calm Calm - 0.01 in   Overcast
2:59 AM 59.0 °F 59.0 °F 100% 30.01 in 4.0 mi NE 1.2 mph - N/A Rain Light Rain
3:04 AM 59.0 °F 59.0 °F 100% 30.01 in 3.0 mi North 2.3 mph - N/A Rain Light Rain
3:09 AM 59.0 °F 59.0 °F 100% 30.00 in 3.0 mi North 2.3 mph - N/A Rain Light Rain
3:14 AM 59.0 °F 59.0 °F 100% 30.00 in 3.0 mi NNE 1.2 mph - N/A Rain Light Rain
3:24 AM 59.0 °F 59.0 °F 100% 30.00 in 4.0 mi North 1.2 mph - N/A   Light Drizzle
3:38 AM 59.0 °F 59.0 °F 100% 30.00 in 6.0 mi NE 3.5 mph - N/A   Light Drizzle
3:40 AM 59.0 °F 59.0 °F 100% 30.00 in 6.0 mi NE 3.5 mph - N/A   Overcast
3:43 AM 59.0 °F 59.0 °F 100% 29.99 in 6.0 mi East 2.3 mph - N/A   Light Drizzle
4:13 AM 59.0 °F 59.0 °F 100% 29.99 in 10.0 mi North 2.3 mph - N/A   Overcast
4:18 AM 59.0 °F 59.0 °F 100% 29.99 in 10.0 mi North 2.3 mph - N/A   Overcast
4:23 AM 59.0 °F 59.0 °F 100% 29.99 in 10.0 mi NE 1.2 mph - N/A   Overcast
4:43 AM 59.0 °F 59.0 °F 100% 29.98 in 5.0 mi NNE 2.3 mph - N/A   Overcast
4:53 AM 59.0 °F 59.0 °F 100% 29.98 in 6.0 mi Calm Calm - N/A   Overcast
4:57 AM 59.0 °F 59.0 °F 100% 29.98 in 8.0 mi North 2.3 mph - N/A   Overcast
4:58 AM 58.8 °F 58.5 °F 99% 29.99 in 8.0 mi North 2.3 mph - N/A   Overcast
5:08 AM 59.0 °F 59.0 °F 100% 29.98 in 10.0 mi Calm Calm - N/A   Overcast
5:18 AM 59.0 °F 59.0 °F 100% 29.98 in 8.0 mi ENE 2.3 mph - N/A   Overcast
5:28 AM 59.0 °F 59.0 °F 100% 29.98 in 9.0 mi Calm Calm - N/A   Overcast
5:38 AM 59.0 °F 59.0 °F 100% 29.98 in 10.0 mi NE 1.2 mph - N/A   Overcast
5:58 AM 58.8 °F 58.6 °F 99% 29.99 in 3.0 mi NNE 1.2 mph - N/A   Overcast
5:59 AM 59.0 °F 59.0 °F 100% 29.98 in 2.5 mi NNE 2.3 mph - N/A   Light Drizzle
6:04 AM 59.0 °F 59.0 °F 100% 29.98 in 3.0 mi NNE 1.2 mph - N/A   Light Drizzle
6:11 AM 59.0 °F 59.0 °F 100% 29.98 in 5.0 mi Calm Calm - N/A   Overcast
6:37 AM 59.0 °F 59.0 °F 100% 29.98 in 6.0 mi Calm Calm - N/A   Light Drizzle
6:42 AM 59.0 °F 59.0 °F 100% 29.98 in 3.0 mi Calm Calm - N/A   Light Drizzle
6:47 AM 59.0 °F 59.0 °F 100% 29.98 in 2.5 mi Calm Calm - N/A   Light Drizzle
6:49 AM 59.0 °F 59.0 °F 100% 29.98 in 2.5 mi Calm Calm - N/A   Overcast
6:54 AM 59.0 °F 59.0 °F 100% 29.98 in 3.0 mi Calm Calm - N/A   Overcast
6:58 AM 59.4 °F 59.0 °F 99% 29.99 in 4.0 mi Calm Calm - 0.01 in   Overcast
7:08 AM 59.0 °F 59.0 °F 100% 29.98 in 3.0 mi NE 2.3 mph - N/A   Overcast
7:18 AM 59.0 °F 59.0 °F 100% 29.98 in 5.0 mi NNE 1.2 mph - N/A   Overcast
7:23 AM 59.0 °F 59.0 °F 100% 29.98 in 6.0 mi NNE 2.3 mph - N/A   Overcast
7:28 AM 60.8 °F 59.0 °F 94% 29.98 in 8.0 mi Calm Calm - N/A   Overcast
7:33 AM 60.8 °F 59.0 °F 94% 29.98 in 10.0 mi NE 1.2 mph - N/A   Overcast
7:38 AM 60.8 °F 60.8 °F 100% 29.98 in 10.0 mi Calm Calm - N/A   Overcast
7:43 AM 60.8 °F 60.8 °F 100% 29.98 in 10.0 mi Calm Calm - N/A   Overcast
7:48 AM 60.8 °F 60.8 °F 100% 29.98 in 6.0 mi Calm Calm - N/A   Overcast
7:58 AM 60.6 °F 60.4 °F 99% 29.99 in 5.0 mi Variable 1.2 mph - N/A   Overcast
8:05 AM 60.8 °F 60.8 °F 100% 29.98 in 9.0 mi WNW 1.2 mph - N/A   Light Drizzle
8:13 AM 60.8 °F 60.8 °F 100% 29.98 in 9.0 mi Calm Calm - N/A   Overcast
8:18 AM 60.8 °F 60.8 °F 100% 29.98 in 10.0 mi Calm Calm - N/A   Overcast
8:28 AM 60.8 °F 60.8 °F 100% 29.98 in 10.0 mi SW 2.3 mph - N/A   Mostly Cloudy
8:38 AM 62.6 °F 60.8 °F 94% 29.98 in 10.0 mi SSW 2.3 mph - N/A   Overcast
8:48 AM 62.6 °F 60.8 °F 94% 29.98 in 6.0 mi SW 2.3 mph - N/A   Overcast
8:53 AM 62.6 °F 60.8 °F 94% 29.98 in 7.0 mi WSW 3.5 mph - N/A   Overcast
8:58 AM 62.4 °F 60.8 °F 94% 29.99 in 9.0 mi West 2.3 mph - 0.00 in   Overcast
9:08 AM 62.6 °F 60.8 °F 94% 29.97 in 7.0 mi Variable 3.5 mph - N/A   Overcast
9:18 AM 62.6 °F 62.6 °F 100% 29.97 in 8.0 mi WSW 3.5 mph - N/A   Overcast
9:43 AM 64.4 °F 60.8 °F 88% 29.97 in 10.0 mi SW 6.9 mph - N/A   Overcast
9:58 AM 64.0 °F 62.1 °F 93% 29.98 in 10.0 mi Variable 3.5 mph - N/A   Overcast
10:11 AM 64.4 °F 62.6 °F 94% 29.96 in 5.0 mi West 5.8 mph - N/A   Light Drizzle
10:21 AM 64.4 °F 62.6 °F 94% 29.96 in 6.0 mi West 5.8 mph - N/A   Overcast
10:25 AM 64.4 °F 62.6 °F 94% 29.96 in 8.0 mi WSW 6.9 mph - N/A   Overcast
10:30 AM 64.4 °F 62.6 °F 94% 29.96 in 10.0 mi West 6.9 mph - N/A   Overcast
10:58 AM 65.3 °F 63.3 °F 93% 29.97 in 8.0 mi SW 4.6 mph - 0.00 in   Overcast
11:13 AM 64.4 °F 62.6 °F 94% 29.96 in 9.0 mi West 8.1 mph - N/A   Overcast
11:18 AM 64.4 °F 62.6 °F 94% 29.96 in 10.0 mi West 6.9 mph - N/A   Overcast
11:38 AM 66.2 °F 62.6 °F 88% 29.96 in 9.0 mi WSW 8.1 mph - N/A   Overcast
11:53 AM 66.2 °F 62.6 °F 88% 29.96 in 7.0 mi SW 5.8 mph - N/A   Overcast
11:58 AM 65.3 °F 62.6 °F 91% 29.97 in 10.0 mi West 5.8 mph - N/A   Overcast
12:13 PM 66.2 °F 62.6 °F 88% 29.96 in 10.0 mi West 6.9 mph - N/A   Overcast
12:16 PM 66.2 °F 62.6 °F 88% 29.96 in 6.0 mi West 8.1 mph - N/A   Light Drizzle
12:31 PM 64.4 °F 62.6 °F 94% 29.96 in 6.0 mi West 6.9 mph - N/A   Light Drizzle
12:36 PM 64.4 °F 64.4 °F 100% 29.96 in 10.0 mi West 6.9 mph - N/A   Light Drizzle
12:40 PM 66.2 °F 62.6 °F 88% 29.96 in 10.0 mi West 6.9 mph - N/A   Overcast
12:50 PM 66.2 °F 62.6 °F 88% 29.96 in 10.0 mi West 6.9 mph - N/A   Overcast
12:55 PM 66.2 °F 62.6 °F 88% 29.96 in 10.0 mi West 8.1 mph - N/A   Overcast
12:58 PM 66.2 °F 62.6 °F 88% 29.97 in 10.0 mi West 5.8 mph - 0.00 in   Overcast
1:08 PM 66.2 °F 62.6 °F 88% 29.96 in 10.0 mi West 6.9 mph - N/A   Overcast
1:18 PM 66.2 °F 62.6 °F 88% 29.96 in 10.0 mi West 6.9 mph - N/A   Overcast
1:37 PM 66.2 °F 60.8 °F 83% 29.96 in 5.0 mi West 5.8 mph - N/A Rain Light Rain
1:42 PM 66.2 °F 62.6 °F 88% 29.96 in 4.0 mi West 4.6 mph - N/A Rain Light Rain
1:47 PM 66.2 °F 62.6 °F 88% 29.96 in 5.0 mi West 4.6 mph - N/A Rain Light Rain
1:56 PM 66.2 °F 62.6 °F 88% 29.96 in 4.0 mi WNW 5.8 mph - N/A   Overcast
1:58 PM 66.2 °F 62.6 °F 88% 29.97 in 5.0 mi NW 5.8 mph - 0.00 in   Overcast
2:00 PM 66.2 °F 62.6 °F 88% 29.96 in 8.0 mi NW 5.8 mph - N/A   Light Drizzle
2:18 PM 66.2 °F 62.6 °F 88% 29.95 in 10.0 mi WNW 8.1 mph - N/A   Overcast
2:23 PM 64.4 °F 62.6 °F 94% 29.96 in 10.0 mi WNW 8.1 mph - N/A   Overcast
2:27 PM 64.4 °F 62.6 °F 94% 29.96 in 10.0 mi WNW 5.8 mph - N/A   Light Drizzle
2:32 PM 64.4 °F 62.6 °F 94% 29.95 in 10.0 mi West 6.9 mph - N/A   Light Drizzle
2:48 PM 64.4 °F 60.8 °F 88% 29.95 in 10.0 mi West 5.8 mph - N/A   Overcast
2:58 PM 64.4 °F 60.8 °F 88% 29.96 in 10.0 mi WSW 4.6 mph - 0.01 in   Overcast
3:03 PM 64.4 °F 60.8 °F 88% 29.95 in 10.0 mi NW 3.5 mph - N/A   Overcast
3:13 PM 66.2 °F 60.8 °F 83% 29.95 in 10.0 mi West 5.8 mph - N/A   Overcast
3:23 PM 66.2 °F 60.8 °F 83% 29.95 in 10.0 mi WNW 4.6 mph - N/A   Mostly Cloudy
3:28 PM 66.2 °F 60.8 °F 83% 29.95 in 10.0 mi West 5.8 mph - N/A   Mostly Cloudy
3:33 PM 66.2 °F 60.8 °F 83% 29.95 in 10.0 mi WNW 6.9 mph - N/A   Mostly Cloudy
3:48 PM 66.2 °F 60.8 °F 83% 29.95 in 10.0 mi WNW 5.8 mph - N/A   Mostly Cloudy
3:53 PM 66.2 °F 60.8 °F 83% 29.95 in 10.0 mi WNW 5.8 mph - N/A   Mostly Cloudy
3:58 PM 66.2 °F 60.8 °F 83% 29.96 in 10.0 mi WNW 6.9 mph - N/A   Mostly Cloudy
4:58 PM 66.0 °F 60.6 °F 83% 29.95 in 10.0 mi West 4.6 mph - N/A   Overcast
5:08 PM 66.2 °F 60.8 °F 83% 29.94 in 10.0 mi WNW 6.9 mph - N/A   Overcast
5:43 PM 66.2 °F 60.8 °F 83% 29.94 in 10.0 mi West 6.9 mph - N/A   Overcast
5:58 PM 66.4 °F 60.3 °F 81% 29.95 in 10.0 mi West 6.9 mph - N/A   Overcast
6:13 PM 66.2 °F 60.8 °F 83% 29.94 in 10.0 mi West 8.1 mph - N/A   Overcast
6:18 PM 66.2 °F 60.8 °F 83% 29.94 in 10.0 mi West 9.2 mph - N/A   Overcast
6:58 PM 66.2 °F 59.5 °F 79% 29.94 in 10.0 mi West 5.8 mph - N/A   Overcast
7:58 PM 66.4 °F 58.6 °F 76% 29.95 in 10.0 mi West 8.1 mph - N/A   Mostly Cloudy
8:58 PM 63.1 °F 57.6 °F 82% 29.96 in 10.0 mi WNW 5.8 mph - N/A   Scattered Clouds
9:08 PM 62.6 °F 57.2 °F 82% 29.95 in 10.0 mi West 3.5 mph - N/A   Mostly Cloudy
9:58 PM 62.6 °F 57.4 °F 83% 29.97 in 10.0 mi WSW 5.8 mph - N/A   Overcast
10:08 PM 62.6 °F 57.2 °F 82% 29.96 in 10.0 mi SW 6.9 mph - N/A   Overcast
10:58 PM 61.2 °F 55.9 °F 83% 29.98 in 10.0 mi SSW 5.8 mph - N/A   Overcast
11:58 PM 59.9 °F 52.7 °F 77% 29.99 in 10.0 mi SSW 4.6 mph - N/A   Overcast